Powrót do katalogu

KSLV-II R/B

AktywnySSO
NORAD 52896·ROCKET BODY·🇰🇷 South Korea

Wystrzelony Jun 21, 2022 z Naro Space Center

Loading…

Następne Przeloty (najbliższe 24 godziny)

TLE

ŚwieżeSource: Space-Track

Epoka: Sep 14, 2026, 16:21 UTC

1 52896U 22065C   26257.68147401  .00000255  00000-0  56368-4 0  9992
2 52896  98.2763  58.0094 0015372 272.1762  87.7681 14.65431170226254

Śledź KSLV-II R/B w czasie rzeczywistym z AllMySat

Download on the App Store